www.pogodaiklimat.ru

Погода и климат >> Архив погоды >> Россия >> город Санкт-Петербург >> Санкт-Петербург


АРХИВ ПОГОДЫ в Санкт-Петербурге

Время (UTC), дата Ветер
(напр.,м/с)
 
Видим.   Явления Облачность Т
(С)
Тd
(С)
f
(%)
Тe
(С)
Тes
(С)
Комфортность P
(гПа)
Po
(гПа)
Тmin
(С)
Tmax
(С)
R
(мм)
R24
(мм)
S
(см)
06 17.01 ЮВ 3
{10}
10 км слабый снег 10/10 300 м
[Sc]
-7.6 -11.2 75 -13 -13 прохладно 1008.3 1007.5 -9.1 0.0 5
09 17.01 ЮВ 3
{11}
10 км {снег} 9/6 300 м
[Sc Ac trans]
-7.1 -10.8 75 -13 -13 прохладно 1006.8 1006.0
12 17.01 ЮВ 3
{10}
10 км слабый снег 10/10 300 м
[Frnb Ns]
-5.9 -9.4 76 -11 -11 прохладно 1005.1 1004.3
15 17.01 ЮВ 4
{10}
10 км слабый снег 10/8 300 м
[Sc As op]
-5.6 -8.5 80 -12 -12 прохладно 1004.0 1003.2 0.3
18 17.01 ЮВ 4
{10}
10 км {снег} 10/8 570 м
[Sc As op]
-5.0 -8.2 78 -11 -11 по сезону 1003.9 1003.1 -5.0 0.3
21 17.01 ЮВ 3
{10}
10 км слабый снег 10/8 570 м
[Sc As op]
-4.4 -7.4 80 -10 -10 по сезону 1004.0 1003.2
00 18.01 ЮВ 3
{11}
10 км слабый снег 10/8 600 м
[Sc As op]
-4.9 -8.2 78 -10 -10 по сезону 1003.1 1002.3
03 18.01 В 1 4000 м слабый снег 10/10 300 м
[Frnb Ns]
-5.7 -8.5 81 -8 -8 по сезону 1002.5 1001.7 -5.7 0.2
06 18.01 В 2 10 км слабый снег 10/10 300 м
[Sc]
-6.0 -8.6 82 -10 -10 по сезону 1002.0 1001.2 -6.0 0.5 6
09 18.01 В 2 4000 м слабый снег 10/10 300 м
[Frnb Ns]
-6.5 -8.7 84 -11 -11 по сезону 1002.2 1001.4
12 18.01 ЮВ 3 4000 м слабый снег 10/10 300 м
[Frnb Ns]
-5.9 -8.4 82 -11 -11 прохладно 1001.2 1000.4
15 18.01 ЮВ 3 10 км слабый снег 10/10 300 м
[Sc]
-5.6 -8.2 82 -11 -11 по сезону 1001.1 1000.3 1
18 18.01 В 2 10 км {снег} 10/10 330 м
[Sc]
-4.8 -7.1 84 -9 -9 по сезону 1001.4 1000.6 -4.8 1
21 18.01 Ю 1 10 км слабый снег 10/10 300 м
[Frnb Ns]
-3.9 -5.6 88 -6 -6 по сезону 1002.4 1001.6
00 19.01 Ю 2 10 км {снег} 10/10 300 м
[Sc]
-2.9 -5.2 84 -7 -7 по сезону 1003.2 1002.5
03 19.01 ЮВ 2 10 км 10/10 360 м
[Sc]
-2.5 -5.0 83 -6 -6 по сезону 1004.4 1003.6 -5.6 0.5
06 19.01 В 2 10 км 10/10 330 м
[Sc]
-2.3 -4.6 84 -6 -6 по сезону 1006.1 1005.3 -4.8 0.5 6
09 19.01 В 2 10 км {ливн. осадки} 10/10 270 м
[St]
-2.2 -4.4 85 -6 -6 по сезону 1007.5 1006.7
12 19.01 ЮВ 1 4000 м дымка {ливн. осадки} 10/10 300 м
[St]
-1.7 -4.3 82 -4 -4 по сезону 1008.1 1007.4
15 19.01 В 1 4000 м дымка 10/10 300 м
[St]
-2.3 -4.5 85 -4 -4 по сезону 1008.3 1007.5 0.0
18 19.01 СВ 1 2000 м снег 10/10 200 м
[Frnb Ns]
-3.6 -5.2 89 -6 -6 по сезону 1007.9 1007.1 -1.7 0.4
21 19.01 В 1 4000 м слабый снег 10/10 200 м
[Frnb Ns]
-3.4 -4.7 91 -6 -6 по сезону 1007.9 1007.2
00 20.01 ЮВ 2 4000 м слабый снег 10/10 200 м
[Frnb Ns]
-3.0 -4.6 89 -7 -7 по сезону 1008.3 1007.5
03 20.01 В 2 10 км слабый снег 9/9 300 м
[Sc]
-4.3 -6.7 83 -8 -8 по сезону 1008.9 1008.1 -4.3 4
06 20.01 ЮВ 2 4000 м слабый снег 9/9 300 м
[Sc]
-4.9 -7.2 84 -9 -9 по сезону 1009.5 1008.7 -4.9 3
09 20.01 В 2 4000 м слабый снег 10/10 300 м
[Frnb Ns]
-5.1 -7.4 84 -9 -9 по сезону 1009.9 1009.1
12 20.01 В 1 4000 м слабый снег 9/9 300 м
[Sc]
-5.5 -7.9 83 -8 -8 по сезону 1009.4 1008.6
15 20.01 В 1 4000 м слабый снег 10/10 570 м
[Sc]
-6.2 -8.9 81 -9 -9 по сезону 1009.5 1008.7 1
18 20.01 штиль 0 10 км {снег} 10/10 450 м
[Sc]
-6.4 -9.0 82 -7 -7 по сезону 1009.4 1008.6 -4.9 1
21 20.01 В 1 10 км слабый снег 10/10 300 м
[Sc]
-7.0 -9.6 82 -9 -9 по сезону 1009.9 1009.1
00 21.01 В 1 4000 м слабый снег 10/10 200 м
[Frnb Ns]
-7.6 -9.8 84 -10 -10 по сезону 1009.8 1009.0
03 21.01 В 1 4000 м слабый снег 10/10 200 м
[Frnb Ns]
-8.7 -10.8 85 -11 -11 по сезону 1010.0 1009.2 -8.7 0.3
06 21.01 С 1 10 км слабый снег 10/10 200 м
[Frnb Ns]
-9.4 -11.3 86 -12 -12 по сезону 1010.4 1009.6 -9.4 0.8 9
09 21.01 СВ 1 10 км слабый снег 10/10 200 м
[Frnb Ns]
-9.3 -11.9 81 -12 -12 прохладно 1011.2 1010.4
12 21.01 С 1 10 км слабый снег 10/10 200 м
[Frnb Ns]
-8.9 -12.4 76 -11 -11 по сезону 1011.6 1010.8
15 21.01 штиль 0 10 км слабый снег 10/10 300 м
[Sc]
-9.4 -11.9 82 -10 -10 по сезону 1012.7 1011.9 0.6
18 21.01 штиль 0 10 км {снег} ясно -11.2 -12.5 90 -11 -11 по сезону 1012.9 1012.1 -8.8 0.6
21 21.01 ЮЗ 2 10 км 4/0
[Ac trans]
-9.3 -11.5 84 -14 -14 прохладно 1012.8 1012.0
00 22.01 ЮЗ 2 10 км слабый снег 8/5 300 м
[Sc Ac trans]
-9.0 -10.8 87 -14 -14 прохладно 1012.2 1011.4
03 22.01 ЮЗ 1 10 км {снег} 3/0
[Ac As]
-13.4 -14.9 88 -16 -16 холодно 1012.1 1011.3 -13.4 0.3
06 22.01 ЮЗ 1 10 км {снег} 3/0
[Ac trans]
-14.7 -16.4 87 -17 -17 холодно 1012.0 1011.2 -14.7 0.3 11
09 22.01 ЮЗ 1 10 км 8/0
[Ac As]
-12.7 -14.2 89 -15 -15 холодно 1012.2 1011.4
12 22.01 С 1 4000 м снег 10/10 200 м
[Frnb Ns]
-10.3 -12.4 85 -13 -13 прохладно 1011.3 1010.5
15 22.01 С 1 10 км слабый снег 10/10 200 м
[Frnb Ns]
-9.4 -11.2 87 -12 -12 прохладно 1011.4 1010.6 1
18 22.01 С 1 10 км слабый снег 10/10 200 м
[Frnb Ns]
-9.6 -11.8 84 -12 -12 по сезону 1012.2 1011.4 -8.9 1
21 22.01 С 1 10 км слабый снег 10/8 300 м
[Sc As op]
-10.9 -13.5 81 -13 -13 прохладно 1013.4 1012.6
00 23.01 ЮЗ 1 10 км {снег} 9/9 300 м
[Sc]
-13.3 -15.4 84 -16 -16 холодно 1015.4 1014.6
03 23.01 З 1 10 км 9/9 300 м
[Sc]
-13.9 -16.2 83 -16 -16 холодно 1017.1 1016.3 -14.5 0.0
06 23.01 З 1 10 км 9/5 600 м
[Sc Ac trans]
-13.1 -15.5 82 -15 -15 прохладно 1018.5 1017.7 -14.5 0.0 12
09 23.01 штиль 0 10 км слабый снег 9/4 600 м
[Sc Ac As]
-11.8 -14.1 83 -12 -12 по сезону 1020.2 1019.4
12 23.01 ЮЗ 1 10 км {снег} ясно -10.2 -13.2 79 -12 -12 прохладно 1021.6 1020.8
15 23.01 ЮЗ 1 10 км 1/0
[Ac lent]
-14.7 -16.5 86 -17 -17 очень
холодно
1024.0 1023.2 0.0
18 23.01 ЮЗ 1 10 км 3/0
[Ac trans]
-14.0 -15.6 88 -16 -16 холодно 1024.6 1023.8 -9.5 0.0
21 23.01 ЮВ 1 10 км 10/0
[Ac As]
-8.3 -11.4 78 -11 -11 по сезону 1024.4 1023.6
00 24.01 В 1 10 км слабый ливневой снег 10/10 300 м
[Cb cap]
-6.7 -8.8 85 -9 -9 по сезону 1023.4 1022.6
03 24.01 Ю 2 10 км {ливн. осадки} 10/10 240 м
[St]
-5.0 -6.5 89 -9 -9 по сезону 1022.0 1021.3 -15.5 0.2

 

Местоположение метеостанции Санкт-Петербург (город Санкт-Петербург, Россия): широта 59.97 долгота 30.30 высота над уровнем моря 6 м.

В архиве по умолчанию представлена погода в Санкт-Петербурге за последнюю неделю. Архивные данные за месяц целиком и за предыдущие месяцы, начиная с января 2011 года, Вы можете получить, выбрав интересующий диапазон дат из раскрывающегося списка и нажав кнопку "Ввод!".

Внимание! Время в таблицах - всемирное. Для получения местного времени необходимо прибавить поправку, которая в Санкт-Петербурге равна 3 ч.

Смотрите также архив погоды в соседних городах и на ближайших метеорологических станциях:

Погода в Лисьем Носу (город Санкт-Петербург, Россия) (19 км)
Погода в Воейково (город Санкт-Петербург, Россия) (22 км)
Погода в Ломоносове (город Санкт-Петербург, Россия) (29 км)
Погода в Кронштадте (город Санкт-Петербург, Россия) (30 км)
Погода в Шлиссельбурге (Ленинградская область, Россия) (39 км)
Погода в Рощино (Ленинградская область, Россия) (48 км)
Погода в Шепелево (Ленинградская область, Россия) (58 км)
Погода в Сосново (Ленинградская область, Россия) (65 км)
Погода в Сосновом Бору (Ленинградская область, Россия) (65 км)
Погода в Белогорке (Ленинградская область, Россия) (70 км)

Пояснения к столбцам:

Ветер - указаны скорость ветра в м/с - средняя за 10 мин, порывы в срок и между сроками (в фигурных скобках) и направление, откуда дует ветер: С - северный, СВ - северо-восточный, В - восточный, ЮВ - юго-восточный, Ю - южный, ЮЗ - юго-западный, З - западный, СЗ - северо-западный.
Видимость - горизонтальная дальность видимости в метрах или километрах. При видимости от 1 до 10 км при отсутствии осадков обычно наблюдается дымка, при ухудшении видимости до 1 км и менее - туман. В сухую погоду видимость может ухудшаться дымом, пылью или мглою.
Явления - указаны атмосферные явления, наблюдавшиеся в срок или в последний час перед сроком; фигурными скобками обозначены явления, наблюдавшиеся между сроками (за 1-3 часа до срока); квадратными скобками обозначены град или гололедные отложения с указанием их диаметра в мм.
Облачность - указаны через наклонную черту общая и нижняя облачность в баллах и высота нижней границы облаков в метрах; квадратными скобками обозначены формы облаков: Ci - перистые, Cs - перисто-слоистые, Cc - перисто-кучевые, Ac - высококучевые, As - высокослоистые, Sc - слоисто-кучевые, Ns - слоисто-дождевые, Cu - кучевые, Cb - кучево-дождевые. Подробнее классификацию облаков см. в Атласе облаков (PDF).
T - Температура воздуха - температура, измеренная на высоте 2 м над землей.
Td - Температура точки росы - температура, при понижении до которой содержащийся в воздухе водяной пар достигнет насыщения.
f - Относительная влажность воздуха - влажноcть воздуха, измеренная на высоте 2 м над землей.
Te - Эффективная температура - температура, которую ощущает одетый по сезону человек в тени. Характеристика душности погоды. При расчете учитывается влияние влажности воздуха и скорости ветра на теплоощущения человека.
Tes - Эффективная температура на солнце - температура, которую ощущает человек, с поправкой на солнечный нагрев. Характеристика знойности погоды. Зависит от высоты солнца над горизонтом, облачности и скорости ветра. Ночью, в пасмурную погоду, а также при ветре 12 м/с и более поправка равна нулю.
P - Атмосферное давление - приведенное к уровню моря атмосферное давление.
Po - Атмосферное давление - измеренное на уровне метеостанции атмосферное давление.
Tmin - Минимальная температура - минимум температуры воздуха на высоте 2 м над землей.
Tmax - Максимальная температура - максимум температуры воздуха на высоте 2 м над землей.
R - Количество осадков - Количество выпавших осадков за период времени, мм. При наведении курсора мыши на число - период времени, за который выпало указанное количество осадков.
R24 - Количество осадков - Количество выпавших осадков за 24 часа, мм.
S - Снежный покров - Высота снежного покрова, см. При наведении курсора мыши на число - состояние снежного покрова и степень покрытия местности в баллах.